Regional Weather Roundup
Issued by NWS Jackson, KY

Home | Current Version | Previous Version | Text Only | Print | Product List | Glossary Off
Versions: 1 2 3 4 5 6 7 8 9 10 11 12 13 14 15 16 17 18 19 20 21 22 23 24 25 26 27 28 29 30 31 32 33 34 35 36 37 38 39 40 41 42 43 44 45 46 47 48 49 50

000
ASUS43 KJKL 071910
RWRJKL

EAST KENTUCKY HOURLY WEATHER ROUNDUP
NATIONAL WEATHER SERVICE JACKSON KY
200 PM EST SUN FEB 07 2016

NOTE: "FAIR" INDICATES FEW OR NO CLOUDS BELOW 12,000 FEET WITH
NO SIGNIFICANT WEATHER AND/OR OBSTRUCTIONS TO VISIBILITY.

* THESE REPORTS ARE NOT UNDER NWS QUALITY CONTROL AND MAY NOT
  REPORT WEATHER SUCH AS PRECIPITATION AND FOG.

KYZ079-080-083-085-087-088-110-112-115-119-120-072000
...EASTERN KENTUCKY...

CITY           SKY/WX    TMP DP  RH WIND       PRES   REMARKS
JACKSON        SUNNY     52  22  30 CALM      30.02F
LONDON         SUNNY     51  21  30 W8        30.04F
SOMERSET*      MOSUNNY   50  23  34 SW10      30.06F
MONTICELLO*    CLOUDY    52  24  33 W16G23    30.07F
WILLIAMSBURG*  CLEAR     52  21  30 S7        30.04F
MIDDLESBORO*   SUNNY     51  22  32 SE5       30.05F
HARLAN APT*      N/A     52  19  28 S6        30.03F
HAZARD APT*    CLEAR    N/A N/A N/A SW7       30.02F
BLACK MTN*       N/A     41  23  48 NW1         N/A
BIG SANDY*     CLEAR     51  24  34 CALM      30.02F
MOREHEAD APT*  CLEAR     52  23  32 SW14G22   30.03F
$$

KYZ035-036-041-042-044-050-067-078-099-072000
...CENTRAL KENTUCKY...

CITY           SKY/WX    TMP DP  RH WIND       PRES   REMARKS
MT STERLING*   SUNNY     50  27  40 W9G18     30.03F
DANVILLE*      MOSUNNY   50  23  34 SW14      30.05F
RICHMOND*      MOSUNNY   52  21  30 SW10      30.02F
LEXINGTON      MOSUNNY   52  21  29 SW15      30.01F
FRANKFORT      SUNNY     52  20  28 S14       29.99F
$$

KYZ091>093-OHZ055-061-077-WVZ005-015-034-035-042-072000
...SOUTHERN OHIO/WEST VIRGINIA...

CITY           SKY/WX    TMP DP  RH WIND       PRES   REMARKS
COVINGTON      MOSUNNY   52  20  28 SW17G29   29.96F
COLUMBUS       PTSUNNY   49  25  39 SW9       29.96F
DAYTON         MOSUNNY   51  25  36 S13G24    29.92F
WILMINGTON     MOSUNNY   50  25  37 SW17G28   29.95F
HUNTINGTON       N/A     53  23  31 S7        30.01F
CHARLESTON       N/A     51  23  33 SW3       30.01F
PINEVILLE*       N/A     49  18  29 MISG      30.06F
BECKLEY          N/A     44  21  40 N8        30.00F
$$

VAZ002-007-008-TNZ017-027-036-066-071-072000
...SOUTHWEST VIRGINIA/EAST TENNESSEE...

CITY           SKY/WX    TMP DP  RH WIND       PRES   REMARKS
BRISTOL        MOSUNNY   47  24  40 SE3       30.04F
KNOXVILLE      MOSUNNY   50  23  34 W3        30.06F
OAK RIDGE      SUNNY     53  23  31 CALM      30.07F
CROSSVILLE     SUNNY     49  19  30 CALM      30.05F
NASHVILLE      PTSUNNY   56  17  21 SW10      30.07F
$$

...KEY TO REMARKS...
VSB - VISIBILITY IN MILES
WCI - WIND CHILL INDEX
HX  - HEAT INDEX

$$



USA.gov is the U.S. government's official web portal to all federal, state and local government web resources and services.